Location: Baitz
(52.1721°N, 12.6770°E)
Time: 14:12:28
(UTC+00:00)

Daily predictions for brighter satellites

Satellite Brightness Start Highest point End
(mag) Time Altitude Azimuth Time Altitude Azimuth Time Altitude Azimuth
Cosmos-2242 3.5 16:14:54 10° N 16:18:58 38° ENE 16:22:59 10° SE
Okean-O 3.0 16:15:22 10° SE 16:19:33 42° ENE 16:23:45 10° N
Cosmos 44 4.4 16:16:03 10° S 16:19:39 23° ESE 16:23:10 10° ENE
Starlink D 3.0 16:16:41 10° W 16:19:54 77° N 16:23:08 10° E
Starlink S 3.0 16:18:47 10° W 16:21:59 77° N 16:25:13 10° E
Starlink C 2.9 16:20:49 10° W 16:24:02 76° N 16:27:15 10° E
ERBS 2.6 16:22:02 10° SW 16:25:18 56° SE 16:28:34 10° ENE
Starlink E 2.9 16:22:56 10° W 16:26:09 76° N 16:29:21 10° E
Meteor 2-1 Rocket 4.2 16:21:57 10° NNW 16:27:30 85° ENE 16:33:04 10° SSE
Starlink J 2.9 16:25:01 10° W 16:28:15 75° N 16:31:27 10° E
Cosmos 1300 3.6 16:25:57 10° NNW 16:29:41 53° W 16:33:24 10° S
Cosmos 1812 Rocket 3.9 16:25:15 10° NNW 16:29:45 76° W 16:34:13 10° S
Cosmos 2082 Rocket 4.3 16:27:57 10° NW 16:30:11 12° NNW 16:32:25 10° N
Starlink V 2.9 16:27:06 10° W 16:30:20 75° N 16:33:33 10° E
Starlink AS 2.7 16:27:32 10° W 16:30:28 73° N 16:33:24 10° E
Starlink BA 2.7 16:27:46 10° W 16:30:41 73° N 16:33:38 10° E
Starlink AU 2.7 16:27:59 10° W 16:30:55 73° N 16:33:50 10° E
Starlink AT 2.7 16:28:12 10° W 16:31:08 73° N 16:34:02 10° E
Starlink BB 2.7 16:28:26 10° W 16:31:22 73° N 16:34:16 10° E
SL-8 Rocket 4.5 16:25:51 10° SSE 16:31:34 39° E 16:37:18 10° NNE
Starlink BC 2.7 16:28:39 10° W 16:31:35 73° N 16:34:28 10° E
Starlink BK 2.7 16:28:53 10° W 16:31:48 73° N 16:34:42 10° E
Starlink AY 2.7 16:29:07 10° W 16:32:02 73° N 16:34:55 10° E
Starlink AW 2.7 16:29:21 10° W 16:32:17 73° N 16:35:09 10° E
Starlink H 3.0 16:29:14 10° W 16:32:26 75° N 16:35:38 10° E
Starlink BJ 2.7 16:29:33 10° W 16:32:29 73° N 16:35:21 10° E
Starlink AV 2.7 16:29:47 10° W 16:32:43 73° N 16:35:34 11° E
Starlink BD 2.7 16:30:01 10° W 16:32:56 73° N 16:35:48 11° E
Starlink BE 2.7 16:30:13 10° W 16:33:10 73° N 16:36:02 11° E
Starlink BM 2.7 16:30:28 10° W 16:33:24 73° N 16:36:14 11° E
Starlink AX 2.7 16:30:42 10° W 16:33:38 73° N 16:36:27 11° E
Starlink BH 2.7 16:30:54 10° W 16:33:50 73° N 16:36:39 11° E
Starlink AZ 2.7 16:31:07 10° W 16:34:03 73° N 16:36:51 11° E
Starlink BG 2.7 16:31:21 10° W 16:34:17 73° N 16:37:05 11° E
Starlink BF 2.7 16:31:34 10° W 16:34:30 72° N 16:37:17 11° E
Starlink F 3.0 16:31:20 10° W 16:34:34 75° N 16:37:40 11° E
Cosmos 2237 Rocket 3.0 16:29:09 10° NW 16:34:40 58° WSW 16:40:10 10° SSE
Starlink BL 2.7 16:31:46 10° W 16:34:43 73° N 16:37:32 11° E
ATLAS 5 CENTAUR R/B 3.1 16:30:46 10° W 16:34:51 31° NNW 16:39:29 10° NE
Starlink AH 2.7 16:32:02 10° W 16:34:58 72° N 16:37:44 11° E
Starlink AQ 2.7 16:32:06 10° W 16:35:03 73° N 16:37:49 11° E
Starlink AC 2.7 16:32:15 10° W 16:35:11 72° N 16:37:56 11° E
Starlink X 2.7 16:32:29 10° W 16:35:25 72° N 16:38:10 11° E
Starlink AE 2.7 16:32:40 10° W 16:35:38 73° N 16:38:26 11° E
Starlink Z 2.7 16:32:54 10° W 16:35:50 72° N 16:38:34 11° E
Starlink AK 2.7 16:33:09 10° W 16:36:04 72° N 16:38:48 12° E
Starlink AL 2.7 16:33:24 10° W 16:36:20 72° N 16:39:02 12° E
Starlink AD 2.7 16:33:36 10° W 16:36:33 72° N 16:39:15 12° E
Starlink G 3.0 16:33:27 10° W 16:36:41 74° N 16:39:42 11° E
Starlink Y 2.7 16:34:03 10° W 16:36:59 72° N 16:39:40 12° E
Starlink AG 2.7 16:34:17 10° W 16:37:13 72° N 16:39:54 12° E
Starlink W 2.7 16:34:27 10° W 16:37:25 72° N 16:40:07 12° E
Starlink AJ 2.7 16:34:43 10° W 16:37:38 72° N 16:40:18 12° E
ATLAS CENTAUR R/B 4.0 16:32:12 10° WSW 16:37:51 80° NNW 16:53:41 11° ENE
Starlink AM 2.7 16:35:11 10° W 16:38:07 72° N 16:40:46 12° E
CZ-4B R/B 3.5 16:35:37 10° N 16:38:10 24° WNW 16:40:42 10° WSW
Starlink AP 2.7 16:35:23 10° W 16:38:20 72° N 16:40:57 12° E
Starlink AA 2.7 16:35:38 10° W 16:38:34 72° N 16:41:12 12° E
Starlink AF 2.7 16:35:50 10° W 16:38:46 72° N 16:41:23 12° E
Starlink L 2.9 16:35:33 10° W 16:38:47 74° N 16:41:44 12° E
CSL-04 Rocket 4.3 16:34:00 10° SE 16:39:00 36° ENE 16:44:03 10° N
Starlink AB 2.7 16:36:05 10° W 16:39:01 72° N 16:41:37 12° E
Starlink AN 2.7 16:36:19 10° W 16:39:15 72° N 16:41:51 13° E
Starlink A 2.9 16:37:41 10° W 16:40:55 74° N 16:43:47 13° E
Cosmos 2251 Rocket 3.6 16:35:54 10° NNW 16:41:08 55° ENE 16:46:22 10° SE
Cosmos 1455 2.4 16:38:56 10° N 16:42:39 48° ENE 16:46:19 10° SSE
YAOGAN 1 3.2 16:39:10 10° SE 16:43:01 32° ENE 16:46:53 10° N
Starlink R 3.0 16:39:49 10° W 16:43:03 74° N 16:45:50 13° E
SMAP 3.6 16:38:57 10° S 16:43:35 65° WSW 16:48:14 10° NNW
Starlink K 2.9 16:41:55 10° W 16:45:09 74° N 16:47:52 14° E
Starlink M 3.0 16:44:01 10° W 16:47:15 74° N 16:49:53 15° E
Timation 2 Rocket 4.5 16:41:38 10° SW 16:47:46 60° NW 16:54:11 10° NNE
H-2A R/B 3.6 16:46:35 12° ENE 16:48:32 15° NE 16:51:17 10° NNE
CORIOLIS 4.5 16:43:44 10° S 16:49:05 72° WSW 16:54:28 10° NNW
Cosmos 2341 Rocket 4.0 16:44:45 10° S 16:51:02 68° E 16:57:20 10° NNE
Cosmos 1125 Rocket 4.1 16:48:31 10° SW 16:53:38 57° WNW 16:58:49 10° NNE
Cosmos 1939 Rocket 3.7 16:50:25 10° SE 16:53:51 29° ENE 16:57:22 10° N
Cosmos 1689 Rocket 4.3 16:51:54 10° N 16:54:24 25° WNW 16:56:53 10° SW
USA 32 4.0 16:49:37 10° S 16:54:49 73° E 17:00:04 10° N
Cosmos 1242 Rocket 4.4 16:54:08 10° SW 16:57:19 30° WNW 17:00:35 10° N
CZ-2D R/B 4.0 16:55:16 10° SE 16:58:41 31° ENE 17:02:08 10° N
Envisat 3.2 16:54:25 10° S 16:59:30 77° WSW 17:04:38 10° NNW
Cosmos 1602 Rocket 4.4 16:55:19 10° SSW 16:59:34 51° WNW 17:03:50 10° N
SL-16 R/B 2.3 16:54:22 10° NNW 17:00:05 87° WSW 17:05:46 10° SSE
Iridium 96 3.4 17:02:06 10° N 17:04:30 86° E 17:07:00 10° S
Cosmos 1339 Rocket 4.4 16:58:25 10° N 17:04:32 75° ENE 17:10:40 10° SSE
Meteor 2-10 Rocket 3.5 16:59:27 10° NNW 17:04:49 84° ENE 17:09:56 10° SSE
USA 267 3.3 17:01:06 14° ENE 17:06:54 78° SSE 17:13:27 10° SW
Cosmos 2082 3.8 17:05:48 10° S 17:11:14 54° ESE 17:16:23 12° NE
Cosmos 2219 3.4 17:06:01 10° SW 17:11:38 73° WNW 17:17:19 10° NNE
COSMO-SKYMED 1 2.7 17:08:16 10° NNE 17:12:34 55° E 17:16:49 10° S
Cosmos 1603 4.0 17:07:26 10° NNW 17:12:54 45° NE 17:18:18 10° ESE
Cosmos 1953 Rocket 3.6 17:08:43 10° S 17:13:09 66° E 17:17:38 10° NNE
Cosmos 1842 Rocket 3.9 17:09:48 10° N 17:14:05 42° ENE 17:18:21 10° SE
Cosmos 2218 Rocket 4.0 17:08:33 10° S 17:14:49 64° E 17:21:10 10° NNE
Cosmos 407 Rocket 4.1 17:11:37 10° NNW 17:16:30 35° NE 17:20:07 16° ESE
Cosmos 2297 Rocket 2.2 17:11:28 10° SSW 17:17:09 87° WNW 17:22:52 10° NNE
Meteor 1-27 4.3 17:11:52 10° N 17:17:19 52° ENE 17:22:44 10° SSE
Cosmos 1758 Rocket 3.8 17:13:04 10° SSW 17:17:22 72° WNW 17:21:43 10° N
SL-8 R/B 4.4 17:13:50 10° SW 17:18:24 43° SSE 17:21:14 21° ESE
Meteor 1-11 4.4 17:16:35 10° SSE 17:21:54 46° E 17:27:12 10° NNE
ARGOS 4.2 17:23:56 23° ENE 17:25:02 24° ENE 17:29:17 10° N
Starlink AR 2.3 17:22:35 10° WNW 17:25:14 82° N 17:25:44 54° E
Cosmos 2263 Rocket 3.7 17:22:11 10° SE 17:24:32 16° ESE 17:24:32 16° ESE
Cosmos 1959 Rocket 4.4 17:20:08 10° S 17:26:15 74° E 17:32:22 10° NNE
Cosmos 2227 Rocket 2.3 17:24:43 10° SW 17:30:23 78° WNW 17:35:55 11° NNE
ISS -3.4 17:27:39 10° WSW 17:30:58 55° SSE 17:31:56 38° ESE
NOAA 11 4.1 17:26:32 10° SSE 17:32:02 80° ENE 17:37:33 10° NNW
Starlink T 2.8 17:29:09 10° W 17:32:19 83° N 17:33:07 47° E
CZ-4 R/B 1.7 17:29:19 10° S 17:33:24 73° WSW 17:37:37 10° NNW
Starlink N 2.8 17:31:03 10° W 17:34:14 84° N 17:34:57 50° E
YAOGAN 6 4.0 17:31:20 10° S 17:34:49 40° W 17:38:17 10° NNW
ATLAS CENTAUR R/B 2.1 17:31:22 10° NW 17:35:20 50° SW 17:39:01 10° SSE
Starlink Q 2.8 17:33:12 10° W 17:36:23 85° NNE 17:37:01 54° E
Shenzhou-11 Module 4.4 17:36:53 10° SSW 17:38:02 12° S 17:38:36 11° S
Starlink P 2.8 17:35:11 10° WNW 17:38:23 86° NNE 17:38:56 57° E
Cosmos 1328 3.8 17:34:52 10° SSW 17:38:54 84° W 17:42:57 10° N
Cosmos 1825 Rocket 4.4 17:35:59 10° SSW 17:40:12 49° WNW 17:44:26 10° N
Starlink U 2.8 17:37:10 10° WNW 17:40:22 87° NNE 17:40:51 61° E
USA 116 3.3 17:40:56 48° ESE 17:40:56 48° ESE 17:43:39 10° S
Starlink B 2.8 17:39:11 10° WNW 17:42:22 88° N 17:42:47 65° E
CZ-2C R/B 4.0 17:41:56 29° ENE 17:42:35 30° ENE 17:47:28 10° N
Ariane Rocket 3.1 17:38:00 10° SE 17:42:54 51° ENE 17:47:50 10° N
Cosmos 2366 rocket 4.0 17:36:53 10° S 17:43:08 89° WSW 17:49:30 10° N
Cosmos 1943 3.3 17:38:07 10° NNW 17:43:41 56° NE 17:47:06 23° ESE
Meteor 2-2 Rocket 4.3 17:42:57 10° N 17:48:58 65° ENE 17:54:56 10° SSE
Cosmos 2221 2.3 17:45:48 10° N 17:50:06 69° ENE 17:54:23 10° SSE
Starlink D 2.9 17:52:53 10° WNW 17:56:00 82° WSW 17:56:00 82° WSW
Cosmos 1356 Rocket 4.1 17:54:05 10° NNW 17:58:02 54° W 18:02:02 10° S
ADEOS Rocket 3.4 17:51:34 10° NNE 17:58:06 53° E 18:05:16 10° S
Starlink S 3.0 17:54:58 10° WNW 17:58:01 78° WSW 17:58:01 78° WSW
Cosmos 614 Rocket 3.9 17:54:44 10° NNW 17:59:57 72° ENE 18:03:06 24° SE
Starlink C 3.1 17:57:01 10° WNW 17:59:59 73° WSW 17:59:59 73° WSW
Cosmos 44 3.3 17:56:01 10° SW 18:00:30 65° NW 18:02:12 35° NNE
SKYMED 2 4.3 17:56:22 10° N 18:00:38 54° WNW 18:04:52 10° SSW
SJ-11-01 4.3 17:59:34 31° SE 18:01:41 59° ENE 18:06:20 10° N
ERBS 3.0 17:58:33 10° W 18:01:43 43° NNW 18:01:43 43° NNW
Starlink E 3.2 17:59:07 10° WNW 18:02:01 69° W 18:02:01 69° W
ATLAS 5 CENTAUR R/B 3.3 17:59:26 10° NW 18:03:36 77° NE 18:15:53 15° ESE
Starlink J 3.3 18:01:13 10° WNW 18:04:03 64° W 18:04:03 64° W
USA 238 DEB 4.5 17:58:51 10° S 18:03:59 29° ESE 18:03:59 29° ESE
USA 238 4.5 17:59:01 10° S 18:04:02 29° ESE 18:04:02 29° ESE
Starlink AS 3.7 18:02:45 10° WNW 18:04:57 46° W 18:04:57 46° W
Starlink BA 3.8 18:02:58 10° WNW 18:05:10 46° W 18:05:10 46° W
Starlink AU 3.8 18:03:11 10° WNW 18:05:23 45° W 18:05:23 45° W
Starlink AT 3.8 18:03:25 10° WNW 18:05:35 45° W 18:05:35 45° W
Starlink V 3.4 18:03:19 10° WNW 18:06:04 60° W 18:06:04 60° W
Starlink BB 3.8 18:03:38 10° WNW 18:05:49 45° W 18:05:49 45° W
Starlink BC 3.8 18:03:51 10° WNW 18:06:01 44° W 18:06:01 44° W
Cosmos 1703 4.4 18:02:59 10° SSW 18:06:48 45° WNW 18:10:39 10° N
Starlink BK 3.8 18:04:06 10° WNW 18:06:15 44° W 18:06:15 44° W
Starlink AY 3.9 18:04:19 10° WNW 18:06:28 44° W 18:06:28 44° W
Starlink AW 3.9 18:04:33 10° WNW 18:06:41 43° W 18:06:41 43° W
IRS-1A Rocket 4.2 18:01:56 10° SSE 18:07:39 75° ENE 18:13:16 10° NNW
Starlink BJ 3.9 18:04:45 10° WNW 18:06:54 43° W 18:06:54 43° W
Starlink AV 3.9 18:05:00 10° WNW 18:07:07 43° W 18:07:07 43° W
Starlink BD 3.9 18:05:13 10° WNW 18:07:20 42° W 18:07:20 42° W
Starlink BE 3.9 18:05:25 10° WNW 18:07:34 43° W 18:07:34 43° W
Starlink BM 4.0 18:05:41 10° WNW 18:07:46 42° W 18:07:46 42° W
Starlink H 3.5 18:05:27 10° WNW 18:08:07 56° W 18:08:07 56° W
Cosmos 1727 Rocket 4.5 18:02:42 10° NNW 18:08:48 61° W 18:14:51 10° S
Starlink AX 4.0 18:05:54 10° WNW 18:08:00 41° W 18:08:00 41° W
Starlink BH 4.0 18:06:06 10° WNW 18:08:11 41° W 18:08:11 41° W
Starlink AZ 4.0 18:06:20 10° WNW 18:08:24 41° W 18:08:24 41° W
Starlink BG 4.0 18:06:33 10° WNW 18:08:37 41° W 18:08:37 41° W
Starlink BF 4.0 18:06:47 10° WNW 18:08:50 40° W 18:08:50 40° W
Starlink BL 4.0 18:06:59 10° WNW 18:09:05 41° W 18:09:05 41° W
Starlink AH 4.1 18:07:15 10° WNW 18:09:17 40° W 18:09:17 40° W
Starlink AQ 4.0 18:07:20 10° WNW 18:09:24 40° W 18:09:24 40° W
Starlink AC 4.1 18:07:27 10° WNW 18:09:29 39° W 18:09:29 39° W
Starlink X 4.1 18:07:42 10° WNW 18:09:43 39° W 18:09:43 39° W
Starlink F 3.7 18:07:34 10° WNW 18:10:09 53° W 18:10:09 53° W
Starlink AE 4.0 18:07:53 10° WNW 18:09:58 41° W 18:09:58 41° W
MOS 1 4.2 18:07:07 21° SE 18:10:59 65° ENE 18:16:39 10° NNW
Starlink Z 4.1 18:08:07 10° WNW 18:10:07 38° W 18:10:07 38° W
Starlink AK 4.1 18:08:22 10° WNW 18:10:21 38° W 18:10:21 38° W
Starlink AL 4.2 18:08:36 10° WNW 18:10:35 38° W 18:10:35 38° W
Starlink AD 4.2 18:08:49 10° WNW 18:10:48 38° W 18:10:48 38° W
Starlink Y 4.2 18:09:16 10° WNW 18:11:13 37° W 18:11:13 37° W
Starlink AG 4.2 18:09:30 10° WNW 18:11:27 37° W 18:11:27 37° W
Starlink W 4.2 18:09:40 10° WNW 18:11:40 38° W 18:11:40 38° W
Starlink AJ 4.2 18:09:55 10° WNW 18:11:51 36° W 18:11:51 36° W
Starlink G 3.8 18:09:40 10° WNW 18:12:11 50° W 18:12:11 50° W
Starlink AM 4.3 18:10:24 10° WNW 18:12:19 36° W 18:12:19 36° W
Starlink AP 4.3 18:10:35 10° WNW 18:12:30 36° W 18:12:30 36° W
Starlink AA 4.3 18:10:50 10° WNW 18:12:44 35° W 18:12:44 35° W
Cosmos 1023 Rocket 4.4 18:08:40 10° NNW 18:13:57 65° ENE 18:14:53 55° ESE
Starlink AF 4.3 18:11:02 10° WNW 18:12:56 35° W 18:12:56 35° W
Starlink AB 4.3 18:11:17 10° WNW 18:13:10 35° W 18:13:10 35° W
Starlink AN 4.4 18:11:32 10° WNW 18:13:24 35° W 18:13:24 35° W
Starlink L 3.9 18:11:48 10° WNW 18:14:14 47° W 18:14:14 47° W
Cosmos 2082 Rocket 4.2 18:14:30 10° N 18:17:00 13° NNE 18:17:13 13° NNE
Starlink A 4.1 18:13:55 10° WNW 18:16:17 44° W 18:16:17 44° W
YAOGAN 1 4.2 18:15:08 10° SSW 18:19:06 34° W 18:23:05 10° NNW
Starlink R 4.2 18:16:03 10° WNW 18:18:20 41° W 18:18:20 41° W
ATLAS 5 CENTAUR R/B 3.4 18:16:53 10° NW 18:20:57 24° N 18:21:38 24° NNE
Starlink K 4.3 18:18:10 10° WNW 18:20:22 39° W 18:20:22 39° W
DMSP B5D1-3 4.5 18:16:58 11° NNE 18:21:59 85° WNW 18:27:05 10° SSW
Starlink M 4.5 18:20:16 10° WNW 18:22:24 37° W 18:22:24 37° W
Cosmos 1140 Rocket 3.3 18:19:04 10° NNW 18:24:21 75° ENE 18:24:57 67° ESE
H-2A R/B 1.9 18:27:11 68° ENE 18:27:11 68° ENE 18:32:12 10° N
Cosmos 1869 4.3 18:24:44 10° NNW 18:27:20 38° NNW 18:27:20 38° NNW
NOSS 3-3 (A) 4.4 18:25:47 10° NW 18:33:07 90° SW 18:36:30 39° SE
NOSS 3-3 (C) 4.4 18:25:53 10° NW 18:33:13 90° ENE 18:36:33 40° SE
Cosmos 44 Rocket 3.9 18:37:55 10° SSW 18:41:16 45° SSW 18:41:16 45° SSW
Cosmos 1954 Rocket 4.2 18:39:57 10° NNW 18:44:32 64° N 18:44:32 64° N
USA 267 3.4 18:48:27 52° NE 18:49:52 64° NNW 18:56:19 10° W
Cosmos 1821 Rocket 4.2 18:44:12 10° SSW 18:50:32 72° WNW 18:56:50 10° N
Cosmos 2227 4.2 18:45:47 10° SSW 18:50:52 70° S 18:50:52 70° S
SPOT 3 Rocket 4.4 18:58:16 42° NNW 18:58:16 42° NNW 19:01:38 10° NNW
Cosmos 407 Rocket 4.4 18:53:37 10° NW 18:58:40 46° WSW 19:00:25 34° SSW
Cosmos 2297 Rocket 4.1 18:57:25 10° W 19:02:00 25° NW 19:04:53 17° N
ARGOS 3.4 19:05:26 65° WNW 19:05:26 65° WNW 19:10:16 10° NNW
ISS -0.5 19:04:18 10° W 19:04:54 14° W 19:04:54 14° W
Cosmos 2263 Rocket 3.2 19:03:13 10° SSW 19:06:18 35° SSW 19:06:18 35° SSW
Cosmos 2123 Rocket 4.4 19:07:01 10° NNW 19:13:13 60° W 19:16:36 27° SSW
Cosmos 2227 Rocket 4.2 19:10:58 10° W 19:15:23 23° NW 19:17:45 18° N
CZ-2C R/B 3.9 19:22:59 53° WNW 19:22:59 53° WNW 19:27:46 10° NNW
ADEOS Rocket 4.4 19:37:24 10° N 19:43:30 41° WNW 19:50:10 10° SW
ATLAS 5 CENTAUR R/B 4.4 20:01:52 10° NW 20:03:10 17° NW 20:03:10 17° NW
H-2A R/B 4.3 20:07:48 20° WNW 20:07:48 20° WNW 20:10:51 10° NW
